SIA508 WSSS-VOBL

Flight info

Callsign SIA508
Flight time N/A
Altitude 40000
Route MASBO A457 VKL R461 ISVUR N563 LEKAP
Aircraft A359/H-SDE1E2E3GHIJ1J2J3J5M1P2RWXYZ/LB1D1

Departure

Time N/A
Airport Singapore Changi Airport (WSSS)

Arrival

Time 2026-04-30 19:28
Airport Kempegowda International Airport Bengaluru (VOBL)
Time Latitude Longitude Altitude Speed Heading
2026-04-30 14:53 1.35837 103.98543 30 ft 0 kts 100°
2026-04-30 17:39 9.38378 90.31441 39914 ft 478 kts 296°
2026-04-30 17:42 9.52500 90.01048 39907 ft 475 kts 296°
2026-04-30 17:43 9.59519 89.85912 39911 ft 475 kts 296°
2026-04-30 17:44 9.67931 89.67745 39908 ft 475 kts 295°
2026-04-30 17:47 9.80525 89.40485 39908 ft 475 kts 295°
2026-04-30 17:48 9.90292 89.19305 39911 ft 472 kts 295°
2026-04-30 17:50 10.01371 88.95221 39908 ft 472 kts 295°
2026-04-30 17:52 10.09678 88.77128 39908 ft 470 kts 295°
2026-04-30 17:54 10.22121 88.50060 39916 ft 469 kts 296°
2026-04-30 17:56 10.34101 88.26555 39904 ft 468 kts 297°
2026-04-30 17:58 10.42997 88.08898 39902 ft 468 kts 297°
2026-04-30 18:00 10.54831 87.85371 39901 ft 468 kts 297°
2026-04-30 18:01 10.62246 87.70605 39905 ft 468 kts 297°
2026-04-30 18:02 10.71105 87.52934 39904 ft 469 kts 297°
2026-04-30 18:04 10.79975 87.35210 39903 ft 469 kts 297°
2026-04-30 18:06 10.91788 87.11559 39904 ft 469 kts 297°
2026-04-30 18:08 11.02080 86.90905 39894 ft 467 kts 297°
2026-04-30 18:10 11.13300 86.68345 39895 ft 466 kts 297°
2026-04-30 18:11 11.23531 86.47725 39896 ft 466 kts 298°
2026-04-30 18:13 11.30822 86.33008 39895 ft 465 kts 298°
2026-04-30 18:14 11.38100 86.18293 39898 ft 465 kts 298°
2026-04-30 18:15 11.46807 86.00657 39895 ft 465 kts 298°
2026-04-30 18:16 11.52637 85.88833 39891 ft 465 kts 298°
2026-04-30 18:17 11.55523 85.82975 39895 ft 465 kts 298°
2026-04-30 18:18 11.59878 85.74127 39896 ft 465 kts 298°
2026-04-30 18:18 11.62779 85.68227 39894 ft 465 kts 298°
2026-04-30 18:19 11.65680 85.62324 39893 ft 465 kts 298°
2026-04-30 18:19 11.68579 85.56421 39895 ft 465 kts 298°
2026-04-30 18:20 11.71474 85.50523 39891 ft 465 kts 298°
2026-04-30 18:20 11.74376 85.44611 39893 ft 465 kts 298°
2026-04-30 18:21 11.77267 85.38711 39890 ft 465 kts 298°
2026-04-30 18:21 11.80160 85.32805 39892 ft 465 kts 298°
2026-04-30 18:22 11.83052 85.26900 39889 ft 465 kts 298°
2026-04-30 18:22 11.87388 85.18038 39888 ft 465 kts 298°
2026-04-30 18:23 11.90259 85.12168 39888 ft 465 kts 298°
2026-04-30 18:23 11.93146 85.06258 39889 ft 465 kts 298°
2026-04-30 18:24 11.97474 84.97389 39892 ft 466 kts 298°
2026-04-30 18:25 12.00364 84.91467 39887 ft 466 kts 298°
2026-04-30 18:25 12.04702 84.82567 39885 ft 467 kts 298°
2026-04-30 18:26 12.09041 84.73657 39883 ft 467 kts 298°
2026-04-30 18:27 12.13377 84.64743 39886 ft 467 kts 298°
2026-04-30 18:28 12.17723 84.55799 39882 ft 469 kts 298°
2026-04-30 18:28 12.22069 84.46847 39882 ft 469 kts 298°
2026-04-30 18:29 12.27864 84.34894 39880 ft 469 kts 298°
2026-04-30 18:30 12.33636 84.22975 39882 ft 469 kts 299°
2026-04-30 18:31 12.37977 84.14001 39884 ft 469 kts 299°
2026-04-30 18:32 12.42304 84.05043 39875 ft 468 kts 298°
2026-04-30 18:33 12.46631 83.96079 39873 ft 468 kts 298°
2026-04-30 18:33 12.50957 83.87110 39871 ft 469 kts 299°
2026-04-30 18:34 12.55283 83.78132 39872 ft 469 kts 299°
2026-04-30 18:35 12.58165 83.72143 39874 ft 469 kts 299°
2026-04-30 18:35 12.61046 83.66154 39872 ft 469 kts 299°
2026-04-30 18:36 12.65215 83.57101 39868 ft 471 kts 292°
2026-04-30 18:36 12.66617 83.50523 39875 ft 475 kts 281°
2026-04-30 18:37 12.67017 83.47162 39868 ft 476 kts 280°
2026-04-30 18:37 12.67695 83.40422 39869 ft 476 kts 279°
2026-04-30 18:38 12.68348 83.33680 39870 ft 476 kts 279°
2026-04-30 18:38 12.69020 83.26941 39866 ft 476 kts 279°
2026-04-30 18:39 12.69705 83.20197 39864 ft 476 kts 279°
2026-04-30 18:39 12.70391 83.13450 39866 ft 476 kts 279°
2026-04-30 18:40 12.71073 83.06719 39860 ft 475 kts 279°
2026-04-30 18:40 12.71750 83.00003 39861 ft 474 kts 279°
2026-04-30 18:41 12.72426 82.93281 39861 ft 474 kts 279°
2026-04-30 18:41 12.73101 82.86557 39865 ft 475 kts 279°
2026-04-30 18:42 12.73775 82.79832 39863 ft 475 kts 279°
2026-04-30 18:42 12.74781 82.69753 39862 ft 474 kts 279°
2026-04-30 18:45 12.78428 82.32884 39860 ft 474 kts 279°
2026-04-30 18:46 12.79088 82.26158 39857 ft 475 kts 279°
2026-04-30 18:46 12.79746 82.19431 39856 ft 475 kts 279°
2026-04-30 18:47 12.80404 82.12702 39854 ft 475 kts 279°
2026-04-30 18:47 12.81059 82.05975 39848 ft 474 kts 279°
2026-04-30 18:48 12.81712 81.99247 39851 ft 475 kts 279°
2026-04-30 18:48 12.82363 81.92511 39849 ft 475 kts 279°
2026-04-30 18:49 12.83012 81.85783 39849 ft 475 kts 279°
2026-04-30 18:49 12.83660 81.79053 39844 ft 475 kts 279°
2026-04-30 18:50 12.84307 81.72313 39843 ft 475 kts 279°
2026-04-30 18:50 12.84952 81.65584 39837 ft 475 kts 279°
2026-04-30 18:51 12.85592 81.58891 39843 ft 475 kts 279°
2026-04-30 18:51 12.86238 81.52102 39841 ft 476 kts 279°
2026-04-30 18:52 12.86873 81.45400 39841 ft 476 kts 279°
2026-04-30 18:52 12.87512 81.38650 39841 ft 476 kts 279°
2026-04-30 18:53 12.88149 81.31899 39838 ft 476 kts 279°
2026-04-30 18:53 12.88786 81.25149 39845 ft 476 kts 279°
2026-04-30 18:54 12.89420 81.18399 39844 ft 476 kts 279°
2026-04-30 18:54 12.90053 81.11647 39843 ft 476 kts 279°
2026-04-30 18:55 12.90684 81.04892 39846 ft 476 kts 279°
2026-04-30 18:55 12.91627 80.94761 39843 ft 476 kts 279°
2026-04-30 18:56 12.92567 80.84627 39847 ft 476 kts 278°
2026-04-30 18:57 12.93402 80.75587 39844 ft 476 kts 278°
2026-04-30 18:57 12.94024 80.68833 39850 ft 476 kts 278°
2026-04-30 18:58 12.94954 80.58695 39849 ft 476 kts 278°
2026-04-30 18:59 12.95854 80.48830 39850 ft 477 kts 278°
2026-04-30 19:00 12.97087 80.35263 39854 ft 478 kts 278°
2026-04-30 19:01 12.98307 80.21744 39854 ft 478 kts 278°
2026-04-30 19:02 12.99851 80.11688 39858 ft 475 kts 286°
2026-04-30 19:03 13.03085 79.98514 39858 ft 477 kts 287°
2026-04-30 19:04 13.06365 79.85348 39875 ft 477 kts 287°
2026-04-30 19:05 13.09646 79.72169 39822 ft 476 kts 287°
2026-04-30 19:05 13.11263 79.65655 38873 ft 468 kts 287°
2026-04-30 19:06 13.12874 79.59166 37427 ft 469 kts 287°
2026-04-30 19:06 13.13680 79.55921 36751 ft 469 kts 287°
2026-04-30 19:06 13.15290 79.49433 35346 ft 470 kts 287°
2026-04-30 19:07 13.16912 79.42893 33706 ft 477 kts 287°
2026-04-30 19:07 13.17734 79.39581 32796 ft 480 kts 287°
2026-04-30 19:08 13.19388 79.32893 30996 ft 487 kts 286°
2026-04-30 19:08 13.21051 79.26139 29375 ft 486 kts 285°
2026-04-30 19:08 13.21873 79.22797 28704 ft 481 kts 285°
2026-04-30 19:09 13.23483 79.16255 27390 ft 472 kts 285°
2026-04-30 19:09 13.24283 79.13003 26746 ft 468 kts 285°
2026-04-30 19:09 13.25086 79.09739 26084 ft 464 kts 285°
2026-04-30 19:10 13.26640 79.03417 24810 ft 456 kts 284°
2026-04-30 19:10 13.28179 78.97146 23535 ft 450 kts 284°
2026-04-30 19:11 13.28934 78.94039 22798 ft 446 kts 284°
2026-04-30 19:11 13.29242 78.87788 21522 ft 435 kts 267°
2026-04-30 19:11 13.29014 78.84702 20873 ft 431 kts 267°
2026-04-30 19:12 13.28781 78.81646 20235 ft 428 kts 267°
2026-04-30 19:12 13.28554 78.78614 19598 ft 425 kts 268°
2026-04-30 19:12 13.28332 78.75600 18944 ft 422 kts 268°
2026-04-30 19:13 13.27895 78.69616 17584 ft 418 kts 268°
2026-04-30 19:13 13.27466 78.63716 16268 ft 411 kts 268°
2026-04-30 19:13 13.27255 78.60807 15634 ft 408 kts 268°
2026-04-30 19:14 13.27044 78.57913 14988 ft 405 kts 268°
2026-04-30 19:14 13.26835 78.55044 14347 ft 402 kts 268°
2026-04-30 19:14 13.26627 78.52193 13705 ft 399 kts 268°
2026-04-30 19:14 13.26420 78.49360 13133 ft 393 kts 268°
2026-04-30 19:15 13.26301 78.46628 12987 ft 374 kts 275°
2026-04-30 19:15 13.26973 78.41597 12727 ft 340 kts 283°
2026-04-30 19:15 13.27356 78.39258 12595 ft 325 kts 283°
2026-04-30 19:16 13.27720 78.37014 12478 ft 312 kts 283°
2026-04-30 19:16 13.28065 78.34866 12347 ft 299 kts 283°
2026-04-30 19:16 13.28710 78.30815 12082 ft 276 kts 283°
2026-04-30 19:17 13.29013 78.28909 11956 ft 265 kts 283°
2026-04-30 19:17 13.29579 78.25327 11735 ft 242 kts 283°
2026-04-30 19:17 13.29841 78.23659 11561 ft 233 kts 283°
2026-04-30 19:18 13.30245 78.20965 11121 ft 227 kts 279°
2026-04-30 19:18 13.29845 78.18892 10837 ft 221 kts 247°
2026-04-30 19:18 13.29123 78.17500 10609 ft 225 kts 243°
2026-04-30 19:19 13.28341 78.16085 10439 ft 230 kts 243°
2026-04-30 19:19 13.27550 78.14654 10183 ft 231 kts 243°
2026-04-30 19:19 13.25987 78.11799 9649 ft 229 kts 243°
2026-04-30 19:20 13.25207 78.10367 9409 ft 230 kts 243°
2026-04-30 19:20 13.24430 78.08937 9188 ft 228 kts 243°
2026-04-30 19:20 13.22896 78.06115 8723 ft 226 kts 243°
2026-04-30 19:21 13.22148 78.04738 8493 ft 223 kts 243°
2026-04-30 19:21 13.20644 78.01971 8030 ft 221 kts 242°
2026-04-30 19:22 13.19197 77.99218 7536 ft 217 kts 249°
2026-04-30 19:22 13.18774 77.94690 6836 ft 213 kts 272°
2026-04-30 19:23 13.18812 77.90160 6155 ft 210 kts 270°
2026-04-30 19:24 13.18817 77.87211 5632 ft 203 kts 271°
2026-04-30 19:24 13.18834 77.85778 5398 ft 198 kts 270°
2026-04-30 19:24 13.18857 77.83032 4895 ft 183 kts 269°
2026-04-30 19:25 13.18886 77.79465 4242 ft 152 kts 269°
2026-04-30 19:26 13.18903 77.77399 3880 ft 141 kts 269°
2026-04-30 19:26 13.18920 77.75378 3524 ft 142 kts 271°
2026-04-30 19:26 13.18933 77.74375 3365 ft 140 kts 271°
2026-04-30 19:27 13.18946 77.72376 2952 ft 136 kts 269°
2026-04-30 19:27 13.18958 77.70930 2969 ft 59 kts 270°
2026-04-30 19:28 13.18962 77.70654 2974 ft 27 kts 271°
2026-04-30 19:28 13.19010 77.70317 2982 ft 23 kts 294°
2026-04-30 19:29 13.19114 77.70192 2984 ft 7 kts 20°
2026-04-30 19:29 13.19137 77.70256 2983 ft 14 kts 87°
2026-04-30 19:30 13.19133 77.70686 2974 ft 25 kts 90°
2026-04-30 19:30 13.19161 77.70874 2970 ft 10 kts 12°
2026-04-30 19:31 13.19211 77.71004 2967 ft 15 kts 89°
2026-04-30 19:31 13.19211 77.71127 2953 ft 19 kts 90°
2026-04-30 19:31 13.19206 77.71454 2945 ft 26 kts 91°
2026-04-30 19:32 13.19204 77.71645 2942 ft 26 kts 90°
2026-04-30 19:32 13.19202 77.71825 2939 ft 26 kts 91°
2026-04-30 19:32 13.19200 77.72014 2940 ft 26 kts 90°
2026-04-30 19:32 13.19199 77.72178 2935 ft 21 kts 90°
2026-04-30 19:33 13.19199 77.72307 2932 ft 13 kts 90°
2026-04-30 19:33 13.19200 77.72405 2930 ft 12 kts 82°
2026-04-30 19:33 13.19265 77.72436 2931 ft 12 kts
2026-04-30 19:33 13.19357 77.72437 2930 ft 14 kts
2026-04-30 19:34 13.19464 77.72438 2926 ft 16 kts
2026-04-30 19:34 13.19585 77.72439 2928 ft 18 kts
2026-04-30 19:34 13.19868 77.72443 2927 ft 22 kts
2026-04-30 19:35 13.20021 77.72445 2928 ft 19 kts
2026-04-30 19:35 13.20109 77.72446 2924 ft 9 kts
2026-04-30 19:35 13.20172 77.72430 2927 ft 9 kts 306°
2026-04-30 19:35 13.20177 77.72366 2930 ft 10 kts 270°
2026-04-30 19:36 13.20178 77.72292 2930 ft 11 kts 270°
2026-04-30 19:36 13.20177 77.72212 2932 ft 11 kts 270°
2026-04-30 19:36 13.20178 77.72052 2935 ft 11 kts 270°
2026-04-30 19:37 13.20179 77.71973 2937 ft 11 kts 271°
2026-04-30 19:37 13.20181 77.71897 2939 ft 9 kts 271°
2026-04-30 19:37 13.20180 77.71847 2933 ft 5 kts 262°
2026-04-30 19:37 13.20169 77.71838 2929 ft 1 kts 208°
2026-04-30 19:38 13.20167 77.71837 2929 ft 0 kts 203°
2026-04-30 19:38 13.20149 77.71835 2938 ft 5 kts 182°
2026-04-30 19:38 13.20113 77.71835 2932 ft 5 kts 181°
2026-04-30 19:38 13.20090 77.71835 2939 ft 2 kts 179°
2026-04-30 19:39 13.20083 77.71835 2936 ft 0 kts 179°